Terminal Aerodrome Forecast
Issued by NWS

Home | Current Version | Previous Version | Text Only | Print | Product List | Glossary Off
Versions: 1 2 3 4 5 6 7 8 9 10 11 12 13 14 15 16 17 18 19 20 21 22

000
FTUS43 KTOP 171700
TAFMHK
TAF
KMHK 171725Z 1718/1818 09007KT P6SM SCT018 OVC070
      TEMPO 1718/1720 BKN018 OVC070
     FM180000 09005KT P6SM OVC015
     FM180200 09005KT 4SM -SN BR OVC015
     FM180400 09004KT 1SM -SN BR OVC004
     FM180800 08004KT 5SM -SN BR OVC005=

USA.gov is the U.S. government's official web portal to all federal, state and local government web resources and services.